Location: Sternwarte ZA, Rosenfeld-Brittheim
(48.2889°N, 8.6789°E)
Time: 07:14:39
(UTC+01:00)

ISS - Pass Details

Date: 05 December 2019
Orbit: 411 x 421 km, 51.6° (Epoch: 15 December)

Event Time Altitude Azimuth Distance (km) Brightness Sun altitude
Rises 19:12:10 0° 292° (WNW) 2,363 1.0 -25.7°
Reaches altitude 10° 19:14:17 10° 288° (WNW) 1,499 -0.1 -26.1°
Enters shadow 19:15:59 27° 277° (W) 849 -1.6 -26.4°
